TimeCST,TemperatureF,Dew PointF,Humidity,Sea Level PressureIn,VisibilityMPH,Wind Direction,Wind SpeedMPH,Gust SpeedMPH,PrecipitationIn,Events,Conditions,WindDirDegrees,DateUTC
12:53 AM,54.0,30.9,41,30.01,10.0,South,12.7,21.9,N/A,,Partly Cloudy,190,2013-02-18 06:53:00
1:53 AM,54.0,30.9,41,30.00,10.0,South,13.8,-,N/A,,Overcast,180,2013-02-18 07:53:00
2:53 AM,54.0,30.9,41,29.98,10.0,South,12.7,-,N/A,,Overcast,170,2013-02-18 08:53:00
3:53 AM,53.1,44.1,71,29.96,10.0,South,11.5,-,N/A,,Overcast,170,2013-02-18 09:53:00
4:53 AM,53.1,45.0,74,29.95,10.0,South,11.5,20.7,N/A,,Overcast,170,2013-02-18 10:53:00
5:53 AM,53.1,46.0,77,29.94,10.0,South,11.5,21.9,N/A,,Overcast,170,2013-02-18 11:53:00
6:53 AM,53.1,46.0,77,29.92,10.0,South,15.0,21.9,N/A,,Overcast,170,2013-02-18 12:53:00
7:53 AM,55.0,46.9,74,29.91,10.0,South,18.4,27.6,N/A,,Overcast,170,2013-02-18 13:53:00
8:53 AM,57.9,48.9,72,29.90,10.0,South,17.3,31.1,N/A,,Mostly Cloudy,180,2013-02-18 14:53:00
9:53 AM,60.1,50.0,69,29.88,10.0,South,17.3,29.9,N/A,,Overcast,180,2013-02-18 15:53:00
10:29 AM,60.8,51.8,72,29.89,10.0,South,17.3,32.2,N/A,,Overcast,180,2013-02-18 16:29:00
10:53 AM,61.0,51.1,70,29.87,10.0,South,13.8,27.6,N/A,,Overcast,180,2013-02-18 16:53:00
11:53 AM,63.0,53.1,70,29.83,10.0,South,17.3,27.6,N/A,,Overcast,180,2013-02-18 17:53:00
12:53 PM,66.0,54.0,65,29.80,10.0,SSW,17.3,26.5,N/A,,Overcast,200,2013-02-18 18:53:00
1:06 PM,66.2,53.6,64,29.80,10.0,South,20.7,29.9,N/A,,Mostly Cloudy,190,2013-02-18 19:06:00
1:53 PM,68.0,55.9,65,29.76,10.0,South,17.3,26.5,N/A,,Mostly Cloudy,190,2013-02-18 19:53:00
2:53 PM,64.0,57.9,80,29.74,9.0,South,12.7,19.6,0.01,Rain,Light Rain,180,2013-02-18 20:53:00
3:04 PM,64.4,57.2,77,29.75,10.0,SSW,10.4,23.0,0.00,Rain-Thunderstorm,Light Thunderstorms and Rain,200,2013-02-18 21:04:00
3:44 PM,66.2,57.2,73,29.74,10.0,SSW,15.0,20.7,0.00,,Clear,210,2013-02-18 21:44:00
3:53 PM,66.9,57.9,73,29.73,10.0,SSW,10.4,21.9,0.00,,Clear,210,2013-02-18 21:53:00
4:53 PM,68.0,57.0,68,29.70,10.0,SSW,13.8,24.2,N/A,Thunderstorm,Clear,200,2013-02-18 22:53:00
5:46 PM,64.4,48.2,56,29.77,10.0,West,16.1,-,0.01,,Scattered Clouds,260,2013-02-18 23:46:00
5:53 PM,63.0,48.9,60,29.78,10.0,WSW,16.1,-,0.01,,Scattered Clouds,250,2013-02-18 23:53:00
6:53 PM,59.0,48.9,69,29.83,10.0,West,11.5,-,N/A,,Clear,270,2013-02-19 00:53:00
7:53 PM,59.0,39.9,49,29.89,10.0,NW,13.8,23.0,N/A,,Clear,320,2013-02-19 01:53:00
8:35 PM,55.4,37.4,51,29.94,10.0,NW,11.5,-,N/A,,Clear,320,2013-02-19 02:35:00
8:53 PM,54.0,37.0,53,29.96,10.0,NNW,9.2,-,N/A,,Clear,330,2013-02-19 02:53:00
9:53 PM,53.1,36.0,52,30.01,10.0,NW,9.2,-,N/A,,Clear,320,2013-02-19 03:53:00
10:53 PM,50.0,35.1,57,30.04,10.0,NW,6.9,-,N/A,,Clear,320,2013-02-19 04:53:00
11:53 PM,50.0,34.0,54,30.07,10.0,NNW,10.4,-,N/A,,Clear,330,2013-02-19 05:53:00